Torna al catalogo

STARLINK-34385

AttivoComunicazioniVLEO
NORAD 64352·PAYLOAD·🇺🇸 United States

Lanciato Jun 13, 2025 da Vandenberg Space Force Base

Loading…

Prossimi Passaggi (prossime 24 ore)

TLE

AggiornatoSource: CelesTrak SupGP

Epoca: Sep 15, 2026, 03:21 UTC

1 64352C 25126J   26258.14006944 -.00027627  00000+0 -96096-3 0  2583
2 64352  69.9999 275.2477 0003514 267.8940 261.0122 15.29595732    19

Traccia STARLINK-34385 in tempo reale con AllMySat

Download on the App Store